Miscellaneous Local Product
Issued by NWS Hastings, NE

Home | Current Version | Previous Version | Text Only | Print | Product List | Glossary Off
Versions: 1 2 3 4 5 6 7 8 9 10 11 12 13 14 15 16 17 18 19 20 21 22 23 24 25 26 27 28 29 30 31 32 33 34 35 36 37 38 39 40 41 42 43 44 45 46 47 48 49 50

000
AXUS43 KGID 302102
MISGRI

GID CWA HOURLY WEATHER ROUNDUP
NATIONAL WEATHER SERVICE HASTINGS NE
400 PM CDT SAT AUG 30 2014

NOTE: "FAIR" INDICATES FEW OR NO CLOUDS BELOW 12,000 FEET WITH NO
SIGNIFICANT WEATHER AND/OR OBSTRUCTIONS TO VISIBILITY.

...SOUTH CENTRAL NEBRASKA...

CITY           SKY/WX    TMP DP  RH WIND       PRES   REMARKS
GRAND ISLAND   SUNNY     82  66  58 SE10      29.91F
HASTINGS       SUNNY     82  60  47 SE7       29.90F
KEARNEY        MOSUNNY   81  66  61 SE13      29.90F
ORD            SUNNY     80  63  55 SE10      29.87F
YORK           SUNNY     79 N/A N/A S5        29.91F
AURORA         MOSUNNY   80  65  61 SE7       29.90F
LEXINGTON      SUNNY     83  66  55 SE12G18   29.89F
HOLDREGE       SUNNY     82  61  47 S12       29.90F
HEBRON         MOSUNNY   85  59  40 SW3       29.90F

...NEBRASKA PANHANDLE...

CITY           SKY/WX    TMP DP  RH WIND       PRES   REMARKS
CHADRON        SUNNY     92  45  19 SW10G21   29.74F
ALLIANCE       SUNNY     88  53  30 S15G28    29.83F
SCOTTSBLUFF    SUNNY     92  44  19 SW7       29.81F
SIDNEY         SUNNY     89  46  22 S17       29.90F

...WESTERN AND NORTH CENTRAL NEBRASKA...

CITY           SKY/WX    TMP DP  RH WIND       PRES   REMARKS
VALENTINE      SUNNY     84  60  44 S18       29.82F
AINSWORTH      SUNNY     79  61  54 SE16      29.85F
ONEILL         SUNNY     80  63  55 S9        29.88F
BROKEN BOW     SUNNY     82  65  56 S17G24    29.88F
IMPERIAL       SUNNY     89  52  28 S15G23    29.87F
NORTH PLATTE   SUNNY     83  61  47 S13       29.87F
MCCOOK         SUNNY     89  56  32 S12       29.87F

...EASTERN NEBRASKA...

CITY           SKY/WX    TMP DP  RH WIND       PRES   REMARKS
NORFOLK        SUNNY     80  61  52 MISG      29.89F
SO SIOUX CITY  SUNNY     75  60  59 CALM      29.89F
TEKAMAH        SUNNY     80  62  54 CALM      29.89F
COLUMBUS       SUNNY     79  61  53 S6        29.90F
ALBION         SUNNY     78  61  54 SE7       29.89F
OMAHA EPPLEY   MOSUNNY   80  64  58 E6        29.90F
OFFUTT AFB     SUNNY     80  69  69 VRB5      29.90F
MILLARD        MOSUNNY   82  64  55 E6        29.89F
LINCOLN        SUNNY     84  61  45 MISG      29.90F
NEBRASKA CITY  SUNNY     83  62  49 CALM      29.90F
BEATRICE       SUNNY     84  64  51 SW3       29.90F
FALLS CITY     MOSUNNY   87  67  51 CALM      29.89F HX  90

...NORTHERN KANSAS...

CITY           SKY/WX    TMP DP  RH WIND       PRES   REMARKS
GOODLAND       SUNNY     88  49  25 S13       29.92F
HILL CITY      SUNNY     91  55  29 SW14      29.88F
NORTON         CLEAR     91  50  24 S9G20     29.87F
PHILLIPSBURG   SUNNY     90  55  31 S12G17    29.87F
SMITH CENTER   SUNNY     88  61  40 SE15      29.88F
BELOIT         SUNNY     90  61  37 S7        29.87F
HAYS           MOSUNNY   93  55  27 S18       29.89F HX  91
RUSSELL        SUNNY     89  59  36 S15       29.89F
CONCORDIA      SUNNY     86  65  49 S5        29.90F
SALINA         SUNNY     93  56  28 CALM      29.89F HX  91
TOPEKA         SUNNY     91  65  41 CALM      29.89F HX  93



USA.gov is the U.S. government's official web portal to all federal, state and local government web resources and services.